Regional Weather Roundup
Issued by NWS

Home | Current Version | Previous Version | Graphics & Text | Print | Product List | Glossary On
Versions: 1 2 3 4 5 6 7 8 9 10 11 12 13 14 15 16 17 18 19 20 21 22 23 24 25 26 27 28 29 30 31 32 33 34 35 36 37 38 39 40 41 42 43 44 45 46 47 48 49 50
000
ASUS43 KMPX 051601
RWRMN
WEATHER ROUNDUP FOR MINNESOTA
NATIONAL WEATHER SERVICE TWIN CITIES/CHANHASSEN MN
1000 AM CST MON DEC 05 2016


NOTE: "FAIR" INDICATES FEW OR NO CLOUDS BELOW 12,000 FEET WITH NO
SIGNIFICANT WEATHER AND/OR OBSTRUCTIONS TO VISIBILITY. N/A MEANS
CURRENT SKY AND/OR WEATHER CONDITIONS ARE NOT AVAILABLE.

MNZ060>063-068>070-051700-
   Twin Cities Metro

CITY           SKY/WX    TMP DP  RH WIND       PRES   REMARKS
TWIN CITIES    PTSUNNY   33  29  85 E12       29.74F WCI  24
ST PAUL        PTSUNNY   33  31  92 E7        29.78F WCI  27
CRYSTAL        CLOUDY    34  29  82 E8        29.74S WCI  27
LAKEVILLE      CLOUDY    32  32 100 SE6       29.76F WCI  26
EDEN PRAIRIE   CLOUDY    34  30  85 E12       29.72F WCI  25
SOUTH ST PAUL  PTSUNNY   32  32 100 SE7       29.76F WCI  26
LAKE ELMO      PTSUNNY   32  32 100 SE7       29.79S WCI  26
$$
MNZ001>005-007-008-013>017-022>024-027-028-051700-
   Northwest Minnesota

CITY           SKY/WX    TMP DP  RH WIND       PRES   REMARKS
BEMIDJI        CLOUDY    26  25  95 E8        29.72R WCI  18
HALLOCK        CLOUDY    28  27  93 E10       29.71R WCI  19
ROSEAU         CLOUDY    30  25  80 E3        29.73F
WARROAD        CLOUDY    30  27  86 CALM      29.73S
THIEF RVR FALL CLOUDY    26  25  96 E13       29.70F FOG     WCI  15
CROOKSTON      CLOUDY    28  27  93 E10       29.69S FOG     WCI  19
FOSSTON        CLOUDY    27  25  93 E9        29.69F FOG     WCI  17
DETROIT LAKES  PTSUNNY   27  27 100 E5        29.67F WCI  21
MOORHEAD       CLOUDY    30  27  86 E9        29.64F WCI  22
PARK RAPIDS    FOG       26  23  88 E8        29.70R VSB 1/4 WCI  18
$$
MNZ006-009>011-018-025>026-051700-
   North Central Minnesota

CITY           SKY/WX    TMP DP  RH WIND       PRES   REMARKS
BAUDETTE       CLOUDY    30  25  81 CALM      29.74R
FLAG ISLAND    CLOUDY    30  25  80 CALM      29.72R
INTL FALLS     CLOUDY    29  26  89 SW6       29.76R WCI  23
WASKISH        CLOUDY    28  27  93 SE3       29.75S
BIG FORK       CLOUDY    28  25  86 CALM      29.76S
LONGVILLE      PTSUNNY   28  27  93 CALM      29.73S
GRAND RAPIDS   CLOUDY    29  25  85 SE5       29.77R WCI  24
CRANE LAKE     CLOUDY    28  27  93 CALM      29.80R
COOK           CLOUDY    28  25  86 W5        29.77S WCI  23
$$
MNZ012-019>021-037-051700-
   Northeast Minnesota

CITY           SKY/WX    TMP DP  RH WIND       PRES   REMARKS
DULUTH         MOSUNNY   31  27  85 CALM      29.77R
ELY            CLOUDY    28  27  93 W6        29.77R WCI  22
HIBBING        CLOUDY    28  24  85 VRB3      29.76S
EVELETH        CLOUDY    30  25  82 CALM      29.78S
DULUTH HARBOR  MOSUNNY   34  30  86 CALM      29.81F
TWO HARBORS    PTSUNNY   36  28  75 CALM      29.77S
SILVER BAY     CLOUDY    32  28  86 W5        29.77R WCI  27
GRAND MARAIS     N/A     35  29  78 VRB5      29.79R WCI  31
G MARAIS ARPRT CLOUDY    27  23  86 W6        29.74R WCI  20
$$
MNZ029>031-032-039>041-046>048-054>057-064-051700-
   West Central Minnesota

CITY           SKY/WX    TMP DP  RH WIND       PRES   REMARKS
FERGUS FALLS   CLOUDY    32  27  80 E10G17    29.66F WCI  24
WHEATON        MOSUNNY  N/A N/A N/A E9        29.62F
MORRIS         CLOUDY    36  30  80 SE14      29.59F
ALEXANDRIA     SUNNY     31  28  89 E13       29.65F WCI  21
ELBOW LAKE     FAIR      32  29  87 SE16      29.62F WCI  21
WADENA         MOSUNNY   25  23  93 E5        29.69R FOG     WCI  19
GLENWOOD       SUNNY     34  30  86 E15       29.63F WCI  24
APPLETON       PTSUNNY   34  30  86 SE12      29.60F WCI  25
BENSON         MOSUNNY   34  30  86 S10       29.62F WCI  26
ORTONVILLE     PTSUNNY   32  28  86 SE7       29.59S WCI  26
MADISON        PTSUNNY   36  36 100 SE9       29.59F
WILLMAR        FAIR      34  32  93 SE15      29.65F WCI  24
$$
MNZ033>034-036-042>043-049>051-058-059-051700-
   Central Minnesota

CITY           SKY/WX    TMP DP  RH WIND       PRES   REMARKS
ST CLOUD       MOSUNNY   32  31  96 E9        29.71F WCI  24
PAYNESVILLE    SUNNY     32  32 100 E10       29.66F WCI  24
AITKIN         FOG       28  25  86 E3        29.74R VSB 1
PINE RIVER     CLOUDY    27  27 100 E7        29.76S FOG     WCI  19
BRAINERD       FOG       27  27 100 VRB5      29.74R VSB 1/4 WCI  22
STAPLES        PTSUNNY   25  25 100 E3        29.71R
LONG PRAIRIE   FAIR      30  30 100 NE9       29.68F WCI  22
LITTLE FALLS   CLOUDY    30  28  93 E5        29.72F WCI  25
LITCHFIELD     MOSUNNY   34  34 100 E10       29.68F WCI  26
BUFFALO        CLOUDY    32  31  95 E6        29.73F WCI  26
MAPLE LAKE     CLOUDY    33  33  99 E5        29.73S WCI  29
$$
MNZ037-044-045-052-053-051700-
   East Central Minnesota

CITY           SKY/WX    TMP DP  RH WIND       PRES   REMARKS
PRINCETON      PTSUNNY   30  30 100 E5        29.75F WCI  25
MORA           FOG       28  27  93 CALM      29.79F VSB 1/4
CAMBRIDGE      MOSUNNY   34  30  86 E3        29.75F
RUSH CITY      MOSUNNY   30  28  93 SE5       29.79F WCI  25
MOOSE LAKE     CLOUDY    30  28  93 CALM      29.77R
HINCKLEY       FOG       30  30 100 CALM      29.79S VSB<1/4
CLOQUET        PTSUNNY   30  27  86 S5        29.76F WCI  25
MCGREGOR       CLOUDY    30  28  93 E5        29.76R WCI  25
$$
MNZ071>073-080-081-089-090-097-098-051700-
   Southwest Minnesota

CITY           SKY/WX    TMP DP  RH WIND       PRES   REMARKS
MONTEVIDEO     MOSUNNY   34  34 100 SE12      29.63F WCI  25
GRANITE FALLS  MOSUNNY   35  32  90 E9        29.63F WCI  27
CANBY          CLOUDY    33  32  96 CALM      29.61R
MARSHALL       CLOUDY    36  31  82 SE9       29.60F
REDWOOD FALLS  PTSUNNY   35  30  82 SE9       29.64F WCI  28
OLIVIA         MOSUNNY   34  32  93 SE12      29.64F WCI  25
PIPESTONE      CLOUDY    36  30  80 S10       29.54F
WINDOM         FAIR      37  30  75 S16G24    29.62F
WORTHINGTON    CLOUDY    36  30  79 S16       29.62F
JACKSON        CLOUDY    34  30  86 S9        29.66F WCI  26
TRACY          CLOUDY    37  32  83 S6        29.60S
SLAYTON        CLOUDY    35  31  85 S12       29.60S WCI  26
$$
MNZ065>067-074>077-082>085-091>093-051700-
   South Central Minnesota

CITY           SKY/WX    TMP DP  RH WIND       PRES   REMARKS
NEW ULM        MOSUNNY   36  32  87 SE14      29.67F
ST JAMES       CLOUDY    37  32  81 SE17G24   29.67F
FAIRMONT       CLOUDY    36  31  82 S13       29.70F
GLENCOE        CLOUDY    35  34  97 E10       29.68F FOG     WCI  27
FARIBAULT      CLOUDY    36  32  87 SE12      29.74S
OWATONNA       CLOUDY    36  30  80 SE15G21   29.74F
WASECA         CLOUDY    34  32  93 SE15      29.75S WCI  24
ALBERT LEA     PTSUNNY   36  36 100 S12       29.76S FOG
$$
MNZ078>079-086>088-094>096-051700-
   Southeast Minnesota

CITY           SKY/WX    TMP DP  RH WIND       PRES   REMARKS
ROCHESTER      PTSUNNY   32  31  96 SE15      29.79F WCI  22
RED WING       PTSUNNY   36  32  87 SE8       29.81R FOG
STANTON        CLOUDY    37  32  82 S6        29.74F
DODGE CENTER   CLOUDY    34  30  86 SE14      29.77F WCI  24
WINONA         CLOUDY    36  32  87 CALM      29.87R
AUSTIN         CLOUDY    32  30  93 SE9       29.79S FOG     WCI  24
PRESTON        FOG       31  30  96 S15       29.84S VSB 1   WCI  20
$$
ABBREVIATIONS USED IN REMARKS
   TC - TEMPERATURES IN CELSIUS
  WCI - WIND CHILL INDEX
   HX - HEAT INDEX
  VSB - VISIBILITY
$$



USA.gov is the U.S. government's official web portal to all federal, state and local government web resources and services.